Weather History for KNKT - October, 2011

Change the Weather History Date:

Sunday, October 2, 2011

  Actual Average (KEWN) Record (KEWN)
Temperature  
Mean Temperature 55 °F 69 °F  
Max Temperature 66 °F 79 °F 93 °F (1986)
Min Temperature 46 °F 59 °F 43 °F (1992)
Degree Days  
Heating Degree Days 10 1  
Month to date heating degree days 2  
Since 1 July heating degree days 9  
Cooling Degree Days 0 5  
Month to date cooling degree days 10  
Year to date cooling degree days 1813  
Growing Degree Days 5 (Base 50)    
Moisture  
Dew Point 41 °F    
Average Humidity 67    
Maximum Humidity 80    
Minimum Humidity 39    
Precipitation  
Precipitation 0.00 in 0.14 in 0.73 in (1989)
Month to date precipitation 0.27  
Year to date precipitation 42.96  
Snow  
Snow - - - ()
Month to date snowfall  
Since 1 July snowfall  
Snow Depth -    
Sea Level Pressure  
Sea Level Pressure 29.97 in    
Wind  
Wind Speed 8 mph ()    
Max Wind Speed 15 mph    
Max Gust Speed 24 mph    
Visibility 10.0 miles    
Events      
T = Trace of Precipitation, MM = Missing Value Source: Averaged Metar Reports

Daily Weather History Graph

Daily Weather History Graph

Search for Another Location

Airport or City:

Trip Planner

Search our weather history database for the weather conditions in past years. The results will help you decide how hot, cold, wet, or windy it might be!

Date:

Astronomy

Oct. 02, 2011 Rise Set
Actual Time 7:02 AM EDT 6:50 PM EDT
Civil Twilight 6:37 AM EDT 7:15 PM EDT
Nautical Twilight 6:08 AM EDT 7:44 PM EDT
Astronomical Twilight 5:38 AM EDT 8:14 PM EDT
Moon 12:53 PM EDT (10/2) 11:00 PM EDT (10/2)
Length of Visible Light 12h 38m
Length of Day
11h 47m
Waxing Crescent, 34% of the Moon is Illuminated
Oct 2
Waxing Crescent
Oct 3
First Quarter
Oct 11
Full
Oct 19
Last Quarter
Oct 26
New

Hourly Weather History & Observations

Time (EDT) Temp. Dew Point Humidity Pressure Visibility Wind Dir Wind Speed Gust Speed Precip Events Conditions
12:54 AM 50.0 °F 41.0 °F 71% 29.92 in 10.0 mi West 9.2 mph - N/A   Clear
1:54 AM 48.9 °F 39.9 °F 71% 29.92 in 10.0 mi West 6.9 mph - N/A   Clear
2:54 AM 48.9 °F 39.9 °F 71% 29.92 in 10.0 mi West 9.2 mph - N/A   Clear
3:54 AM 48.9 °F 39.9 °F 71% 29.92 in 10.0 mi West 9.2 mph - N/A   Clear
4:54 AM 48.0 °F 41.0 °F 77% 29.92 in 10.0 mi West 10.4 mph - N/A   Clear
5:54 AM 46.9 °F 39.9 °F 77% 29.93 in 10.0 mi West 9.2 mph - N/A   Clear
6:54 AM 46.9 °F 39.9 °F 77% 29.94 in 10.0 mi West 10.4 mph - N/A   Clear
7:54 AM 48.9 °F 41.0 °F 74% 29.95 in 10.0 mi West 11.5 mph - N/A   Clear
8:54 AM 52.0 °F 43.0 °F 71% 29.97 in 10.0 mi West 10.4 mph - N/A   Clear
9:54 AM 57.0 °F 44.1 °F 62% 29.97 in 10.0 mi WNW 9.2 mph - N/A   Clear
10:54 AM 60.1 °F 43.0 °F 53% 29.97 in 10.0 mi WNW 15.0 mph 20.7 mph N/A   Clear
11:54 AM 62.1 °F - N/A% 29.97 in 10.0 mi WNW 12.7 mph 20.7 mph N/A   Partly Cloudy
12:54 PM 64.0 °F - N/A% 29.95 in 10.0 mi WNW 9.2 mph 18.4 mph N/A   Mostly Cloudy
1:54 PM 64.0 °F - N/A% 29.94 in 10.0 mi West 8.1 mph - N/A   Scattered Clouds
2:54 PM 64.9 °F - N/A% 29.93 in 10.0 mi WNW 12.7 mph 19.6 mph N/A   Mostly Cloudy
3:54 PM 64.9 °F - N/A% 29.94 in 10.0 mi West 13.8 mph 24.2 mph N/A   Partly Cloudy
4:54 PM 64.9 °F - N/A% 29.95 in 10.0 mi NW 10.4 mph - N/A   Mostly Cloudy
5:54 PM 62.1 °F 37.0 °F 39% 29.96 in 10.0 mi West 11.5 mph - N/A   Clear
6:54 PM 59.0 °F 39.0 °F 48% 29.99 in 10.0 mi West 9.2 mph - N/A   Clear
7:54 PM 55.9 °F 39.0 °F 53% 30.02 in 10.0 mi WNW 6.9 mph - N/A   Clear
8:54 PM 54.0 °F 39.9 °F 59% 30.04 in 10.0 mi WNW 3.5 mph - N/A   Clear
9:54 PM 48.9 °F 43.0 °F 80% 30.05 in 10.0 mi Calm Calm - N/A   Clear
10:54 PM 48.9 °F 42.1 °F 77% 30.05 in 10.0 mi Calm Calm - N/A   Clear
11:54 PM 48.0 °F 42.1 °F 80% 30.05 in 10.0 mi Calm Calm - N/A   Clear